This demonstration page uses our WeatherBlox Daily Observations layout. Learn more.

Left ArrowRight Arrow

44.89941, -97.11507

Hourly Observations for November 15, 2020

Temp ( °F °C ) Dew Point ( °F °C ) Humidity (%) Winds ( mph kmh ) Pressure ( in mb ) Visibility ( mi km ) Precip ( " mm )
12:03 am 00:03 Mostly Cloudy 34 1.1 25 -3.9 70 70 NW 22 35 29.64 1004 10 16 0.00 0.00
12:53 am 00:53 Cloudy 34 1.1 25 -3.9 70 70 NW 25 41 29.62 1003 10 16 0.00 0.00
1:53 am 01:53 Cloudy 34 1.1 25 -3.9 70 70 WNW 16 26 29.63 1003 10 16 0.00 0.00
2:53 am 02:53 Cloudy 34 1.1 25 -3.9 70 70 WNW 20 31 29.63 1004 10 16 0.00 0.00
3:53 am 03:53 Cloudy 35 1.7 24 -4.4 64 64 WNW 23 37 29.64 1004 10 16 0.00 0.00
4:53 am 04:53 Cloudy 33 0.6 23 -5 66 66 WNW 25 41 29.66 1004 10 16 0.00 0.00
5:53 am 05:53 Cloudy 33 0.6 24 -4.4 70 70 W 20 31 29.66 1004 10 16 0.00 0.00
6:24 am 06:24 Cloudy 32 0 24 -4.4 73 73 WNW 24 39 29.72 1006 10 16 0.00 0.00
6:48 am 06:48 Cloudy 32 0 23 -5 69 69 WNW 22 35 29.72 1006 10 16 0.00 0.00
6:53 am 06:53 Cloudy 32 0 24 -4.4 73 73 WNW 23 37 29.69 1005 10 16 0.00 0.00
7:51 am 07:51 Windy with Snow Likely 28 -2 21 -6 74 74 NW 26 43 29.78 1009 4 6 0.00 0.00
7:53 am 07:53 Windy with Snow Likely 28 -2.2 22 -5.6 78 78 NW 28 44 29.74 1007 4 6 0.00 0.00
8:04 am 08:04 Cloudy 28 -2.2 21 -6.1 75 75 NW 31 50 29.80 1009 10 16 0.00 0.00
8:53 am 08:53 Cloudy 28 -2.2 20 -6.7 72 72 NW 24 39 29.79 1009 10 16 0.00 0.00
9:53 am 09:53 Cloudy 29 -1.7 19 -7.2 66 66 NW 30 48 29.82 1010 10 16 0.00 0.00
10:53 am 10:53 Mostly Cloudy 29 -1.7 20 -6.7 69 69 NW 28 44 29.85 1011 10 16 0.00 0.00
11:50 am 11:50 Partly Cloudy 30 -1 19 -7 64 64 WNW 18 30 29.91 1013 10 16 0.00 0.00
11:53 am 11:53 Partly Cloudy 32 0 21 -6.1 64 64 WNW 21 33 29.87 1011 10 16 0.00 0.00
12:04 pm 12:04 Mostly Cloudy 31 -0.6 21 -6.1 67 67 NW 22 35 29.90 1013 10 16 0.00 0.00
12:16 pm 12:16 Partly Cloudy 32 0 21 -6.1 64 64 WNW 20 31 29.90 1012 10 16 0.00 0.00
12:53 pm 12:53 Sunny 33 0.6 20 -6.7 58 58 WNW 20 31 29.88 1012 10 16 0.00 0.00
1:53 pm 13:53 Sunny 34 1.1 20 -6.7 56 56 WNW 17 28 29.89 1012 10 16 0.00 0.00
2:53 pm 14:53 Sunny 34 1.1 20 -6.7 56 56 WNW 15 24 29.92 1013 10 16 0.00 0.00
3:53 pm 15:53 Sunny 34 1.1 20 -6.7 56 56 W 17 28 29.95 1014 10 16 0.00 0.00
4:53 pm 16:53 Sunny 31 -0.6 19 -7.2 61 61 WNW 13 20 29.97 1015 10 16 0.00 0.00
5:53 pm 17:53 Clear 30 -1.1 19 -7.2 64 64 WNW 12 19 29.99 1016 10 16 0.00 0.00
6:53 pm 18:53 Clear 28 -2.2 20 -6.7 72 72 W 12 19 30.01 1016 10 16 0.00 0.00
7:53 pm 19:53 Clear 25 -3.9 20 -6.7 81 81 W 9 15 30.04 1017 10 16 0.00 0.00
8:53 pm 20:53 Clear 22 -5.6 17 -8.3 82 82 WSW 6 9 30.04 1017 10 16 0.00 0.00
9:53 pm 21:53 Mostly Clear 21 -6.1 16 -8.9 81 81 Calm 30.02 1017 10 16 0.00 0.00
10:53 pm 22:53 Partly Cloudy 24 -4.4 18 -7.8 77 77 SSE 5 7 30.01 1016 10 16 0.00 0.00
11:53 pm 23:53 Cloudy 26 -3.3 21 -6.1 81 81 SSE 6 9 30.00 1016 10 16 0.00 0.00

Powered by AerisWeather